Location: Strada George Coșbuc
(47.6577°N, 23.5639°E)
Time: 01:29:46
(UTC+03:00)

ISS - Pass Details

Date: 15 September 2017
Orbit: 401 x 407 km, 51.6° (Epoch: 23 September)

Event Time Altitude Azimuth Distance (km) Brightness Sun altitude
Exits shadow 04:46:43 39° 8° (N) 624 -2.7 -22.4°
Drops below altitude 10° 04:49:46 10° 75° (ENE) 1,472 0.0 -21.9°
Sets 04:51:56 0° 83° (E) 2,332 1.2 -21.6°
